Regional Weather Roundup
Issued by NWS Newport/Morehead, NC

Current Version | Previous Version | Graphics & Text | Print | Product List | Glossary Off
Versions: 1 2 3 4 5 6 7 8 9 10 11 12 13 14 15 16 17 18 19 20 21 22 23 24 25 26 27 28 29 30 31 32 33 34 35 36 37 38 39 40 41 42 43 44 45 46 47 48 49 50

000
ASUS42 KMHX 180210
RWRMHX
WEATHER ROUNDUP FOR EASTERN NORTH CAROLINA
NATIONAL WEATHER SERVICE NEWPORT/MOREHEAD CITY NC
1000 PM EDT THU APR 17 2014

NOTE: "FAIR" INDICATES FEW OR NO CLOUDS BELOW 12,000 FEET
WITH NO SIGNIFICANT WEATHER AND/OR OBSTRUCTIONS TO VISIBILITY

NCZ015>017-031-032-045>047-102-103-180300-
NORTH COAST

CITY           SKY/WX    TMP DP  RH WIND       PRES   REMARKS
EDENTON        CLOUDY    45  40  82 NE7       30.51S
ELIZABETH CITY CLOUDY    46  40  79 NE14G26   30.51R
KITTY HAWK     PTCLDY    46  43  90 N10G22    30.47R
MANTEO         PTCLDY    46  43  90 NE17G29   30.47S

$$

NCZ045>047-081-094-103-104-180300-
CENTRAL COAST

CITY           SKY/WX    TMP DP  RH WIND       PRES   REMARKS
FRISCO         MOCLDY    50  48  93 NE12G22   30.44R
SWANQUARTER      N/A     48 N/A N/A VRB7G20   30.44R

$$

NCZ095-097-098-100-101-180300-
SOUTHERN COAST

CITY           SKY/WX    TMP DP  RH WIND       PRES   REMARKS
BEAUFORT       MOCLDY    51  44  77 N17G24    30.44S
CEDAR ISLAND     N/A     52 N/A N/A N23       30.50R
JACKSONVILLE   MOCLDY    54  44  69 NE14      30.43S
NEWPORT          N/A     50  43  76 N8G15       N/A
PINEY ISLAND   PTCLDY    52  44  74 N15G23    30.46R
WILMINGTON     PTCLDY    56  45  66 NE9       30.41S


$$

NCZ011>013-027>030-043-044-078>080-089-090>093-098-180300-
COASTAL PLAIN

CITY           SKY/WX    TMP DP  RH WIND       PRES   REMARKS
AHOSKIE        CLEAR     44  37  77 N3        30.54R
CLINTON        CLEAR     56  47  73 E5        30.43S
ELIZABETHTOWN  CLEAR     54  46  74 CALM      30.43R
GOLDSBORO      CLEAR     52  44  72 NE14      30.44S
GREENVILLE     CLEAR     48  39  71 NE12      30.50S
HAVELOCK       MOCLDY    50  41  71 NE16      30.46S
KENANSVILLE    CLEAR     52  43  71 E7        30.45S
KINSTON        CLEAR     50  41  71 NE14      30.48S
NEW BERN       CLEAR     50  42  74 NE12      30.48R
RICHLANDS      MOCLDY   N/A N/A N/A NE14G23   30.44F
ROANOKE RAPIDS NOT AVBL
ROCKY MOUNT      N/A    N/A N/A N/A MISG      30.49R
WASHINGTON     CLEAR     46  40  81 NE6       30.51R
WHITEVILLE     CLEAR     57  46  67 NE5       30.41R

$$

AMZ130-135-150-152-154-156-158-170-250-252-270-ANZ085-086-088-633-658-670-180300-
MARINE OBSERVATIONS

STATION/POSITION TIME  TEMP    WIND        PRES    WAVE   SWELL
                       AIR SEA DIR/SP/G            HT/PER HT/PER
                 (UTC) (F)     (DEG/KT/KT) (MB)    (FT/S) (FT/S)
CHESAPEAKE LIGHT 0100   44      50/ 28/ 29 1033.3
BUOY 44014       0200   52 54   30/ 23/ 27 1030.7    9/ 9   7/ 9
DUCK             0200   46 51   20/ 25/ 29 1031.1
2E DUCK          0200      50                N/A     8/ 7   2/11
OREGON INLET     0200   47 52   10/ 13/ 22 1031.2
BUOY 44095       0200      48                N/A    10/10   3/11
HATTERAS CG      0200   52 56  360/ 16/ 23 1030.7
DIAMOND BUOY     NOT AVBL
CAPE LOOKOUT     0100   53      10/ 14/ 19 1030.3
BEAUFORT LAB     0200   52 59   10/ 15/ 20 1030.0
30 SE NEW RIVER  0200   56 63   30/ 25/ 29 1029.0    7/ 9   3/ 9
5 SE WRIGHTSVILL 0100   59 60   50/ 19/ 23 1028.9
FRYING PAN BUOY  0200   60 64   60/ 23/ 27 1027.9    9/ 7   3/10
BUOY 41001       NOT AVBL
BUOY 41002       NOT AVBL
BUOY 41004       NOT AVBL

$$



USA.gov is the U.S. government's official web portal to all federal, state and local government web resources and services.